Powrót do katalogu

STARLINK-5739

AktywnyŁącznośćVLEO
NORAD 55571·PAYLOAD·🇺🇸 United States

Wystrzelony Feb 12, 2023 z Cape Canaveral Space Force Station

Loading…

Następne Przeloty (najbliższe 24 godziny)

TLE

ŚwieżeSource: CelesTrak SupGP

Epoka: Sep 14, 2026, 21:40 UTC

1 55571C 23020C   26257.90326389  .00007756  00000+0  28091-3 0  2576
2 55571  43.0041  20.0276 0001559 277.7679 335.3057 15.27574512    15

Śledź STARLINK-5739 w czasie rzeczywistym z AllMySat

Download on the App Store